, AK

(GMT )
Anchorage

Weather History for PANC - April, 2014

Change the Weather History Date:

Monday, April 7, 2014

  Actual Average Record
Temperature  
Mean Temperature 37 °F 33 °F  
Max Temperature 41 °F 41 °F 53 °F (2016)
Min Temperature 33 °F 26 °F 5 °F (1986)
Degree Days  
Heating Degree Days 28    
Month to date heating degree days 214  
Since 1 July heating degree days 8129  
Cooling Degree Days 0    
Month to date cooling degree days 0  
Year to date cooling degree days 0  
Moisture  
Dew Point 28 °F    
Average Humidity 83    
Maximum Humidity 89    
Minimum Humidity 76    
Precipitation  
Precipitation 0.04 in 0.02 in 0.28 in (1959)
Month to date precipitation 0.04 0.11  
Year to date precipitation 2.76 2.16  
Snow  
Snow 0.20 in 0.20 in 4.30 in (2012)
Month to date snowfall 0.2 1.4  
Since 1 July snowfall 64.5 71.6  
Snow Depth 3.00 in    
Sea Level Pressure  
Sea Level Pressure 29.33 in    
Wind  
Wind Speed 4 mph (WNW)    
Max Wind Speed 10 mph    
Max Gust Speed 24 mph    
Visibility 8 miles    
Events Fog , Rain , Snow    
T = Trace of Precipitation, MM = Missing Value Source: NWS Daily Summary

Daily Weather History Graph

Daily Weather History Graph

Search for Another Location

Airport or City:

Trip Planner

Search our weather history database for the weather conditions in past years. The results will help you decide how hot, cold, wet, or windy it might be!

Date:

Astronomy

Apr. 07, 2014 Rise Set
Actual Time 7:03 AM AKDT 9:01 PM AKDT
Civil Twilight 6:17 AM AKDT 9:48 PM AKDT
Nautical Twilight 5:18 AM AKDT 10:48 PM AKDT
Astronomical Twilight 4:02 AM AKDT 12:06 AM AKDT
Moon 12:26 PM AKDT (4/7) 4:30 AM AKDT (4/7)
Length of Visible Light 15h 30m
Length of Day
13h 58m
First Quarter, 55% of the Moon is Illuminated
Apr 7
First Quarter
Apr 14
Full
Apr 21
Last Quarter
Apr 28
New
May 6
First Quarter

Hourly Weather History & Observations

Time (AKDT) Temp. Windchill Dew Point Humidity Pressure Visibility Wind Dir Wind Speed Gust Speed Precip Events Conditions
12:53 AM 37.0 °F 33.3 °F 30.0 °F 76% 29.52 in 10.0 mi SSW 4.6 mph - 0.00 in   Overcast
1:53 AM 36.0 °F 31.1 °F 30.9 °F 82% 29.51 in 10.0 mi SSW 5.8 mph - 0.00 in   Overcast
2:53 AM 36.0 °F 32.1 °F 30.9 °F 82% 29.49 in 10.0 mi South 4.6 mph - N/A   Overcast
3:53 AM 35.1 °F 30.1 °F 30.9 °F 85% 29.47 in 10.0 mi SSE 5.8 mph - N/A   Overcast
4:53 AM 35.1 °F 31.0 °F 30.9 °F 85% 29.45 in 10.0 mi South 4.6 mph - N/A   Overcast
5:53 AM 36.0 °F - 30.9 °F 82% 29.43 in 10.0 mi Calm Calm - N/A   Overcast
6:40 AM 33.8 °F - 30.2 °F 87% 29.40 in 10.0 mi Calm Calm - N/A   Overcast
6:53 AM 35.1 °F - 30.9 °F 85% 29.41 in 10.0 mi Calm Calm - 0.00 in Rain Light Rain
7:53 AM 35.1 °F - 30.9 °F 85% 29.39 in 6.0 mi Calm Calm - 0.01 in Rain Light Rain
8:53 AM 33.1 °F - 30.9 °F 92% 29.37 in 2.5 mi Calm Calm - 0.01 in Rain , Snow Light Rain
8:57 AM 33.8 °F - 30.2 °F 87% 29.36 in 1.8 mi Calm Calm - 0.01 in Rain , Snow Light Rain
9:16 AM 33.8 °F - 30.2 °F 87% 29.35 in 0.5 mi Calm Calm - 0.03 in Fog , Snow Light Snow
9:32 AM 33.8 °F - 30.2 °F 87% 29.35 in 1.2 mi Calm Calm - 0.04 in Snow Light Snow
9:53 AM 34.0 °F - 30.9 °F 89% 29.34 in 1.2 mi Calm Calm - 0.05 in Snow Light Snow
10:11 AM 33.8 °F - 30.2 °F 87% 29.33 in 3.0 mi Calm Calm - 0.01 in Snow Light Snow
10:22 AM 33.8 °F - 30.2 °F 87% 29.33 in 6.0 mi Calm Calm - 0.01 in Snow Light Snow
10:53 AM 34.0 °F - 30.9 °F 89% 29.32 in 7.0 mi Calm Calm - 0.01 in Fog Overcast
11:53 AM 36.0 °F 32.1 °F 32.0 °F 86% 29.31 in 10.0 mi WNW 4.6 mph - N/A   Overcast
12:00 PM 35.6 °F 31.7 °F 32.0 °F 87% 29.30 in 10.0 mi NW 4.6 mph - N/A   Overcast
12:53 PM 37.0 °F 29.8 °F 32.0 °F 82% 29.29 in 10.0 mi West 10.4 mph - N/A   Overcast
1:53 PM 37.0 °F 32.4 °F 32.0 °F 82% 29.27 in 10.0 mi WNW 5.8 mph - N/A   Mostly Cloudy
2:53 PM 39.0 °F 36.8 °F 32.0 °F 76% 29.26 in 10.0 mi WNW 3.5 mph - N/A   Mostly Cloudy
3:53 PM 39.0 °F 36.8 °F 32.0 °F 76% 29.24 in 10.0 mi NNW 3.5 mph - N/A   Mostly Cloudy
4:53 PM 39.0 °F 34.0 °F 30.0 °F 70% 29.23 in 10.0 mi SW 6.9 mph - N/A   Mostly Cloudy
5:37 PM 39.2 °F 34.2 °F 30.2 °F 70% 29.21 in 10.0 mi SSW 6.9 mph - N/A   Mostly Cloudy
5:53 PM 37.9 °F 32.1 °F 30.9 °F 76% 29.23 in 10.0 mi NW 8.1 mph - N/A   Mostly Cloudy
6:53 PM 36.0 °F 32.1 °F 30.0 °F 79% 29.22 in 10.0 mi West 4.6 mph - N/A   Overcast
7:53 PM 37.0 °F 31.6 °F 28.9 °F 73% 29.23 in 10.0 mi WNW 6.9 mph - N/A   Overcast
8:53 PM 35.1 °F 25.9 °F 16.0 °F 46% 29.24 in 10.0 mi North 13.8 mph 18.4 mph N/A   Overcast
9:53 PM 32.0 °F 20.8 °F 16.0 °F 52% 29.26 in 10.0 mi North 17.3 mph 24.2 mph N/A   Overcast
10:53 PM 30.9 °F 21.7 °F 10.0 °F 42% 29.27 in 10.0 mi North 11.5 mph 19.6 mph N/A   Overcast
11:53 PM 30.0 °F 21.1 °F 9.0 °F 41% 29.29 in 10.0 mi NNE 10.4 mph 17.3 mph N/A   Overcast